Change the Weather History Date:

Saturday, July 26, 2014

  Actual Average Record
Temperature  
Mean Temperature 84 °F 84 °F  
Max Temperature 91 °F 92 °F 101 °F (1893)
Min Temperature 76 °F 75 °F 66 °F (1911)
Cooling Degree Days 19 19  
Month to date cooling degree days 438 478  
Year to date cooling degree days 1414 1590  
Since 1 June cooling degree days 945 976  
Growing Degree Days 32 (Base 50)    
Moisture  
Dew Point 75 °F    
Average Humidity 78    
Maximum Humidity 100    
Minimum Humidity 56    
Precipitation  
Precipitation 0.01 in 0.17 in 2.07 in (1971)
Month to date precipitation 5.98 5.44  
Year to date precipitation 37.61 35.14  
Sea Level Pressure  
Sea Level Pressure 30.04 in    
Wind  
Wind Speed 6 mph (SW)    
Max Wind Speed 20 mph    
Max Gust Speed 25 mph    
Visibility 10 miles    
Events      
T = Trace of Precipitation, MM = Missing Value Source: NWS Daily Summary

Daily Weather History Graph

Daily Weather History Graph

Search for Another Location

Airport or City:

Trip Planner

Search our weather history database for the weather conditions in past years. The results will help you decide how hot, cold, wet, or windy it might be!

Date:

Astronomy

Jul. 26, 2014 Rise Set
Actual Time 6:22 AM CDT 8:05 PM CDT
Civil Twilight 5:56 AM CDT 8:31 PM CDT
Nautical Twilight 5:24 AM CDT 9:03 PM CDT
Astronomical Twilight 4:51 AM CDT 9:36 PM CDT
Moon 6:11 AM CDT (7/26) 7:47 PM CDT (7/26)
Length of Visible Light 14h 35m
Length of Day
13h 42m
Waning Crescent, 0% of the Moon is Illuminated
Jul 26
Waning Crescent
Jul 26
New
Aug 3
First Quarter
Aug 10
Full
Aug 17
Last Quarter

Hourly Weather History & Observations

Time (CDT) Temp. Heat Index Dew Point Humidity Pressure Visibility Wind Dir Wind Speed Gust Speed Precip Events Conditions
12:53 AM 79.0 °F - 75.9 °F 90% 30.02 in 10.0 mi SSW 5.8 mph - N/A   Clear
1:53 AM 78.1 °F - 75.0 °F 90% 30.01 in 10.0 mi SSW 4.6 mph - N/A   Clear
2:53 AM 78.1 °F - 75.0 °F 90% 30.00 in 10.0 mi SSW 4.6 mph - N/A   Clear
3:53 AM 79.0 °F - 75.0 °F 88% 30.00 in 10.0 mi SSW 4.6 mph - N/A   Clear
4:53 AM 78.1 °F - 75.9 °F 93% 30.02 in 9.0 mi Calm Calm - N/A   Clear
5:53 AM 75.9 °F - 75.0 °F 97% 30.03 in 10.0 mi SW 3.5 mph - N/A   Clear
6:53 AM 78.1 °F - 75.9 °F 93% 30.04 in 8.0 mi Calm Calm - N/A   Clear
7:53 AM 81.0 °F 87.9 °F 77.0 °F 88% 30.06 in 10.0 mi Calm Calm - N/A   Scattered Clouds
8:53 AM 84.0 °F 93.7 °F 77.0 °F 79% 30.08 in 10.0 mi WNW 6.9 mph - N/A   Partly Cloudy
10:43 AM 87.8 °F 97.6 °F 75.2 °F 66% 30.09 in 10.0 mi WNW 8.1 mph - N/A   Mostly Cloudy
10:53 AM 88.0 °F 95.6 °F 73.0 °F 61% 30.09 in 10.0 mi WSW 4.6 mph - N/A   Mostly Cloudy
11:27 AM 89.1 °F 98.0 °F 73.9 °F 61% 30.09 in 10.0 mi West 5.8 mph - N/A   Partly Cloudy
1:53 PM 90.0 °F 100.2 °F 75.0 °F 61% 30.05 in 10.0 mi SSW 5.8 mph - N/A   Mostly Cloudy
2:53 PM 89.1 °F 100.2 °F 75.9 °F 65% 30.04 in 10.0 mi West 8.1 mph - N/A   Mostly Cloudy
3:53 PM 86.0 °F 96.0 °F 75.9 °F 72% 30.04 in 7.0 mi SSW 9.2 mph - N/A   Mostly Cloudy
4:53 PM 87.8 °F 97.6 °F 75.2 °F 66% 30.02 in 10.0 mi SW 12.7 mph - N/A   Clear
5:53 PM 88.0 °F 95.6 °F 73.0 °F 61% 30.01 in 10.0 mi SW 8.1 mph - N/A   Clear
6:53 PM 87.1 °F 96.3 °F 75.0 °F 67% 30.01 in 10.0 mi SSW 10.4 mph - N/A   Clear
7:53 PM 84.9 °F 94.1 °F 75.9 °F 74% 30.02 in 10.0 mi SSW 6.9 mph - N/A   Clear
8:53 PM 82.9 °F 90.2 °F 75.0 °F 77% 30.03 in 10.0 mi SSW 6.9 mph - N/A   Clear
9:53 PM 82.0 °F 89.4 °F 75.9 °F 82% 30.04 in 10.0 mi SSW 5.8 mph - N/A   Clear
10:53 PM 81.0 °F 87.3 °F 75.9 °F 85% 30.06 in 10.0 mi SSW 6.9 mph - N/A   Clear
11:53 PM 80.1 °F 85.4 °F 75.9 °F 87% 30.06 in 10.0 mi SW 5.8 mph - N/A   Clear